User: anonymous   Login
Location: CNYAC Observatory
(43.2150°N, 74.9500°W)
Time: 16:53:46
(UTC-04:00)
Language:

Meteor 1-22 Rocket - Orbit

View from above orbital plane
View from above orbital plane
View from above satellite
View from above satellite

Ground track
Ground track

The orbit data is extracted from the following two-line orbital elements,

1 08294U 75087B   16267.98550923 -.00000018  00000-0 -17381-4 0  9998
2 08294  81.2142 282.0258 0106310  74.0091 287.2759 14.08588249107379
Epoch (UTC): 23 September 2016 23:39:07
Eccentricity: 0.0106310
inclination: 81.2142°
perigee height: 787 km
apogee height: 941 km
right ascension of ascending node: 282.0258°
argument of perigee: 74.0091°
revolutions per day: 14.08588249
mean anomaly at epoch: 287.2759°
orbit number at epoch: 10737

The dashed part of the orbit path shows where the satellite is in the earth's shadow,  

DLR